Temp
14 12 12 11 11 10 11 12 13 13 13 14 14 15 15 16 17 18 18 18 18 18 18 17 18 18 17 17 17 16 16 16
14 13 13 12 12 11 11 11 12 12 12 13 13 13 15 17 17 17 18 18 18 17 18 17 18 17 17 17 17 17 16 16
16 15 13 13 13 13 12 12 13 13 13 14 14 15 17 18 18 18 18 18 17 17 17 17 17 17 17 17 16 16 16 15
17 15 14 14 14 14 14 14 15 15 15 15 16 16 17 17 18 18 18 17 17 17 17 17 17 17 17 16 16 16 15 15
18 17 15 14 15 15 15 15 15 15 15 15 15 15 16 17 18 18 18 18 18 17 16 17 16 16 16 16 16 15 15 14
19 18 17 15 15 15 15 15 15 16 16 16 15 16 17 18 18 18 18 18 18 17 16 16 16 16 16 16 15 15 14 12
20 19 19 17 16 16 16 16 16 16 16 16 17 17 18 19 19 18 19 18 17 17 16 16 16 16 15 15 14 13 13 11
21 20 20 19 18 17 17 17 17 17 17 17 17 18 19 20 20 19 19 18 18 18 16 16 16 16 15 15 14 12 11 10
22 21 21 21 19 19 18 18 18 18 18 18 18 18 19 19 20 20 19 19 17 17 16 16 16 15 15 14 13 11 10 10
23 23 22 22 21 20 19 19 19 20 19 19 19 19 19 19 19 19 19 19 16 15 16 15 15 15 14 13 12 10 10 10
23 23 23 23 22 21 20 20 20 20 20 20 20 20 19 20 19 19 19 17 16 15 13 14 14 12 12 11 10 9 9 9
21 20 23 24 24 22 21 20 20 19 20 20 20 20 20 20 19 17 16 15 14 13 13 12 12 11 11 9 9 8 8 8
23 22 23 24 24 24 22 20 18 21 20 19 20 17 16 15 15 15 15 13 13 13 13 12 11 10 10 8 8 7 8 7
21 22 23 23 24 23 22 20 19 18 17 18 18 17 18 15 15 14 13 13 13 12 11 11 10 9 8 7 7 7 7 6
21 20 21 22 23 22 21 21 19 18 18 17 15 16 15 14 13 13 12 11 11 10 10 10 10 9 8 7 6 6 5 5
21 20 19 19 20 20 19 19 19 18 17 16 14 14 14 13 12 12 11 10 10 10 10 9 8 7 6 6 6 5 5 5
23 20 19 19 19 18 18 18 16 17 15 14 14 14 13 12 12 11 10 10 9 8 7 7 6 6 5 5 5 5 5 5
21 20 19 18 17 17 17 17 16 15 14 13 13 12 11 11 10 10 9 8 7 6 6 5 5 5 5 5 5 5 4 4
18 17 16 16 17 17 16 16 15 14 13 12 11 11 10 9 9 8 7 7 6 6 5 5 5 5 5 5 4 4 4 3
Height
790 791 794 796 798 800 802 809 813 818 823 827 829 832 836 838 842 842 844 846 848 851 854 855 857 860 862 865 867 870 870 871
787 792 798 799 801 802 807 809 813 820 822 825 827 829 832 835 837 838 839 842 845 847 851 852 853 855 858 861 864 866 867 868
783 790 793 795 798 801 804 808 812 815 818 822 825 827 827 830 832 833 836 838 840 843 846 849 850 852 854 857 859 861 863 865
777 784 788 793 795 796 800 802 806 809 813 818 821 822 825 825 827 829 830 834 837 839 841 844 846 847 849 852 854 856 857 861
767 774 781 782 786 790 793 797 800 803 807 809 811 813 815 817 821 825 827 830 832 833 835 837 838 842 844 848 848 851 854 859
758 763 769 775 780 782 786 790 792 795 798 801 803 804 807 810 814 818 821 823 826 827 831 833 834 836 836 838 845 847 849 855
747 751 759 764 771 776 778 781 784 788 792 794 797 799 801 804 806 808 810 814 818 819 823 827 830 830 832 834 836 841 840 843
738 744 750 756 757 762 768 773 776 780 784 786 787 788 790 793 799 802 804 807 812 815 816 818 821 824 827 829 832 834 838 840
726 731 738 743 747 751 758 763 767 773 776 777 779 781 784 785 790 794 800 804 803 808 811 811 815 819 822 824 828 832 835 837
719 721 728 732 735 741 744 750 758 764 765 770 771 772 776 779 782 786 787 789 794 801 805 807 810 813 817 820 824 827 830 833
711 714 718 720 723 727 735 740 742 745 750 756 760 762 766 770 775 780 782 786 787 788 801 801 805 811 814 817 819 822 826 829
706 709 712 714 715 720 728 735 746 749 755 753 755 752 750 759 765 768 780 786 788 787 795 799 802 807 809 813 816 819 823 826
699 703 705 708 709 715 723 728 728 728 731 740 745 749 752 749 761 756 764 777 785 782 790 794 798 802 804 808 812 816 819 822
699 701 703 704 706 707 708 716 719 727 726 729 737 744 746 758 756 762 769 774 777 781 785 789 793 797 800 805 809 812 815 819
697 700 702 703 705 707 710 713 718 726 728 730 734 738 739 746 754 761 770 772 776 779 781 786 790 793 798 803 807 810 813 816
695 697 700 702 705 709 712 712 714 718 721 725 731 736 743 750 757 762 766 769 773 776 778 783 787 792 796 800 803 807 811 815
690 693 698 702 705 709 713 715 715 716 720 726 731 737 742 748 753 758 763 766 770 774 778 782 786 790 794 798 802 806 810 814
688 691 695 699 702 706 712 715 718 720 724 729 733 737 742 747 752 757 762 766 771 775 778 782 786 790 793 798 802 806 809 812
685 689 694 698 701 705 710 716 720 725 729 732 736 740 745 749 754 759 764 768 772 775 779 783 787 791 795 798 802 804 807 809
Wind_Speed
24 23 22 26 29 29 34 38 36 38 37 37 36 40 35 37 29 26 22 23 18 19 20 17 19 20 16 14 15 16 17 15
25 28 29 28 31 31 35 35 37 33 32 30 32 29 30 30 24 20 25 25 25 22 22 18 25 23 19 20 18 18 13 12
24 26 28 29 32 31 34 36 37 33 32 31 28 29 26 25 23 25 23 26 27 24 26 22 26 23 22 23 24 19 18 14
19 25 29 33 33 34 36 36 33 34 33 31 30 26 26 29 28 28 28 29 28 25 28 25 26 24 26 24 27 26 18 14
19 25 29 34 35 36 35 35 34 36 36 32 31 29 24 28 32 33 33 30 29 29 34 32 26 25 26 22 26 22 14 12
22 25 35 36 38 39 37 38 38 38 39 37 34 33 32 35 34 35 35 33 32 31 32 29 25 28 27 22 23 21 17 14
23 34 36 37 38 37 39 39 40 43 43 45 36 34 36 36 34 31 37 37 36 36 29 29 31 29 28 27 27 28 29 26
22 23 27 35 38 42 40 40 40 42 41 42 44 41 40 40 36 36 31 31 33 27 32 32 34 35 30 30 31 31 25 28
23 25 32 35 41 42 43 42 40 41 43 44 45 41 39 41 36 29 29 27 30 36 34 36 32 34 33 33 29 27 26 29
17 23 33 37 40 44 45 44 43 40 39 40 42 46 42 38 41 30 33 35 32 31 34 33 33 33 31 25 24 27 31 26
13 15 31 37 42 45 46 45 46 49 46 43 45 48 48 44 32 37 32 29 30 34 35 32 29 27 23 20 26 29 28 24
10 9 15 31 39 40 40 37 26 32 27 38 38 46 51 47 41 34 19 25 32 29 30 23 24 24 22 22 28 29 25 17
7 8 7 7 19 34 28 38 45 50 39 35 40 29 18 17 21 24 20 34 27 23 23 23 24 24 22 24 28 26 21 17
8 6 2 1 4 9 31 38 45 34 35 38 31 28 29 31 24 24 28 24 19 18 18 21 24 26 24 23 23 23 17 17
8 8 7 5 3 12 21 28 29 30 35 26 27 24 23 24 24 24 23 20 18 18 19 23 25 24 21 19 20 17 16 17
8 8 7 9 12 17 23 20 21 30 27 24 27 26 24 23 22 19 16 14 14 14 19 24 24 21 17 16 17 17 18 17
8 9 9 9 15 19 21 21 22 27 30 29 26 24 22 19 18 15 14 12 10 12 14 17 17 15 14 15 16 18 18 16
9 12 11 14 21 26 24 22 25 28 28 27 27 27 25 22 19 18 15 14 12 11 12 13 14 13 15 17 16 17 14 10
10 9 10 18 26 29 26 26 27 27 26 26 27 27 26 25 23 22 20 17 15 15 15 14 15 17 16 16 13 10 8 8
Wind_Direction
167 168 159 165 160 158 164 167 172 177 176 170 172 180 184 185 215 233 229 214 214 217 212 210 202 201 203 205 205 211 205 198
162 165 168 166 166 164 171 172 171 172 176 180 181 197 207 209 220 224 211 216 218 220 211 216 206 208 208 207 207 208 191 205
160 164 166 171 174 176 179 179 181 183 190 194 203 209 219 222 226 228 223 226 221 220 217 212 208 207 205 212 214 202 209 213
167 166 172 177 181 183 185 188 192 193 194 199 201 211 229 221 226 228 228 226 221 218 216 212 214 216 212 216 210 212 205 217
173 172 178 181 186 187 190 194 194 194 196 198 207 214 215 216 221 222 222 225 231 220 216 213 214 214 213 221 209 203 190 194
178 182 182 187 187 190 194 197 196 197 202 207 212 213 217 218 220 223 224 226 223 216 212 211 211 208 210 205 201 200 197 214
184 187 186 186 190 194 196 199 203 205 207 212 214 215 220 214 213 214 219 219 214 219 206 212 215 211 203 197 197 212 215 213
185 186 188 192 188 194 199 202 205 205 207 212 217 219 222 214 218 217 214 209 221 226 220 212 213 210 205 209 216 215 216 202
186 188 190 193 196 195 197 203 207 207 209 214 218 221 220 214 213 213 212 223 235 240 225 220 208 212 215 217 222 224 212 207
199 190 191 197 198 200 198 198 205 209 210 214 216 218 219 212 214 205 216 220 228 242 228 209 211 210 215 217 225 221 210 211
203 186 193 199 202 203 203 202 203 208 210 214 218 219 218 220 211 208 219 239 222 231 214 207 209 217 220 239 226 217 205 206
181 193 201 209 206 206 204 201 185 217 228 225 224 221 220 216 209 207 240 244 226 211 208 214 223 228 237 228 216 208 206 216
148 152 176 173 196 214 199 190 190 203 215 230 225 213 178 196 197 200 229 224 208 202 215 225 225 226 225 219 216 214 212 212
154 138 151 309 108 123 189 184 196 208 215 227 214 208 214 218 216 206 202 191 195 198 204 209 210 212 214 217 220 211 212 209
164 160 167 180 101 99 115 177 188 195 208 189 164 176 172 170 169 170 179 181 189 195 199 207 209 213 214 211 210 204 205 204
176 168 167 146 121 108 110 121 121 139 147 149 137 140 143 150 158 161 161 164 174 185 193 198 201 200 201 200 200 198 194 195
163 151 141 142 129 121 114 112 118 127 128 126 130 133 138 143 145 152 152 151 158 171 179 184 188 195 192 199 200 194 190 191
147 151 150 143 137 134 124 120 121 119 120 128 135 139 139 143 149 151 149 151 151 152 153 167 176 176 173 179 186 181 190 213
137 131 124 132 138 134 132 132 129 129 126 127 132 131 131 135 138 139 144 151 150 145 146 152 151 156 169 173 180 202 230 256